Location: Esterri de Aneo
(42.6284°N, 1.1223°E)
Time: 07:19:06
(UTC+00:00)

Cosmos 2333 Rocket - Pass Details

Date: 11 December 2025
Orbit: 837 x 865 km, 70.8° (Epoch: 13 January)

Event Time Altitude Azimuth Distance (km) Brightness Sun altitude
Rises 18:48:07 0° 175° (S) 3,409 5.4 -26.0°
Reaches altitude 10° 18:50:47 10° 165° (SSE) 2,481 4.6 -26.5°
Enters shadow 18:51:20 13° 162° (SSE) 2,303 4.4 -26.6°
